Wind_Speed
11 11 12 13 14 15 14 13 14 17 16 16 15 16 16 18 20 19 20 22 23 23 22 23 23 23 23 23 23 24 24 24 25 25 24 25 25 25 24 25 24 23 23 24 25 26 26 28 25
10 11 12 12 13 14 13 14 16 17 16 17 16 16 16 18 19 20 22 25 26 26 26 26 25 26 26 25 24 26 27 28 28 27 26 27 26 26 26 27 27 25 24 25 26 28 30 29 30
11 12 12 13 13 13 13 15 15 17 17 18 17 15 15 19 19 20 22 26 26 26 28 28 28 28 28 28 28 28 28 29 30 29 27 27 27 28 29 27 27 28 29 30 30 31 32 31 33
12 12 14 13 13 13 14 15 15 15 16 18 18 16 15 18 19 20 21 24 26 27 27 26 26 27 28 29 29 29 29 29 29 29 28 29 29 30 30 31 30 32 34 33 33 34 36 36 36
12 13 15 14 13 14 16 15 15 16 18 18 17 16 17 19 19 20 22 23 25 26 27 27 27 28 28 29 29 29 29 29 30 29 29 31 31 32 33 33 35 35 35 36 39 40 41 37 38
13 14 15 15 14 15 17 18 16 16 19 20 17 18 20 19 19 20 21 23 25 27 27 27 28 30 31 30 30 30 31 32 31 30 31 33 33 35 36 37 38 39 40 40 41 43 44 42 39
15 15 15 15 16 17 19 19 19 18 18 20 19 19 22 22 21 23 23 23 25 26 25 26 29 30 31 32 31 33 34 33 31 32 33 35 37 38 41 41 42 43 46 46 48 47 44 42 38
16 16 16 16 16 17 20 21 21 20 18 20 21 19 24 23 22 24 25 25 26 25 25 26 27 28 30 32 33 35 36 35 34 34 35 37 40 42 44 44 46 47 49 51 45 42 41 41 40
19 17 17 16 18 19 20 22 22 23 19 21 19 20 22 22 22 24 26 27 27 27 27 27 28 28 29 32 35 35 36 36 36 36 37 39 42 45 46 46 45 48 48 43 39 39 38 38 40
20 19 19 19 18 19 22 23 23 23 22 21 19 20 22 22 23 23 25 26 28 29 29 29 29 28 30 32 34 36 37 37 37 37 40 43 44 46 50 48 48 49 45 40 37 38 39 38 37
21 20 21 22 20 20 23 25 23 23 24 21 22 22 24 24 26 26 25 25 28 29 30 30 30 30 32 34 36 37 37 37 37 38 41 45 47 50 51 51 51 49 44 41 38 39 40 41 39
22 22 22 23 22 22 24 25 23 23 23 21 22 24 24 25 27 28 27 26 28 29 30 30 30 31 33 34 36 38 38 38 39 41 44 47 50 52 54 55 53 47 42 40 39 42 44 45 43
22 25 24 23 24 24 25 26 23 25 24 21 22 24 24 23 25 26 26 26 28 28 28 28 30 32 33 35 37 40 39 40 42 44 48 52 53 55 57 57 53 45 41 41 42 45 49 51 50
24 24 25 24 26 24 25 27 23 25 25 21 21 23 23 23 22 23 23 25 26 27 27 28 29 32 34 35 38 40 42 43 45 47 52 56 57 59 59 57 52 43 43 44 44 45 48 51 46
26 26 25 26 26 25 25 27 25 23 24 21 20 23 23 23 19 20 22 24 25 26 27 28 29 32 34 36 39 42 43 45 46 51 57 60 61 63 61 58 46 42 43 42 42 44 45 46 46
28 26 26 26 26 27 25 21 30 22 21 22 22 21 21 20 19 19 21 23 25 26 28 28 30 32 34 36 40 41 42 45 50 57 61 64 66 66 60 49 43 40 39 37 38 41 41 41 43
28 27 26 27 27 28 27 20 30 25 20 21 22 21 20 19 18 18 20 23 24 26 28 29 30 32 34 37 40 41 43 49 56 62 68 72 70 60 49 40 36 34 32 32 32 26 24 25 33
28 28 27 27 28 28 28 22 26 25 18 19 20 21 20 18 16 17 20 23 24 25 28 29 30 32 34 37 38 40 47 55 61 64 65 69 53 43 37 32 29 25 25 26 23 21 24 21 30
29 29 27 29 30 28 29 23 25 26 20 17 18 19 18 16 16 18 21 23 23 25 27 29 30 31 34 36 38 45 52 52 56 64 64 52 32 31 23 23 16 17 19 19 22 26 23 23 29
31 29 27 29 31 30 27 22 25 23 21 18 18 17 16 15 15 18 20 22 23 25 27 29 29 31 33 35 41 48 46 53 61 63 52 27 25 19 14 10 10 10 9 18 21 19 19 32 27
32 30 29 31 31 30 29 21 21 23 19 17 17 16 14 13 15 18 19 20 23 22 25 27 29 29 31 36 43 45 46 58 62 58 31 17 7 6 7 11 8 12 19 19 19 22 33 25 28
33 32 31 32 32 29 27 24 17 20 18 18 16 14 14 13 15 17 18 20 20 21 24 27 29 28 31 36 42 38 50 60 54 48 25 12 5 6 12 12 9 22 23 16 18 19 24 21 27
35 33 32 33 33 31 24 30 15 18 16 15 14 14 14 14 15 16 17 20 19 22 23 27 27 27 30 37 36 38 52 54 47 42 18 11 1 10 18 11 12 23 20 20 15 15 23 14 22
38 35 34 35 34 36 25 28 14 18 17 15 13 13 14 13 15 15 17 19 19 21 23 25 24 26 30 36 35 37 52 45 40 35 22 8 6 14 14 11 16 21 21 20 20 13 21 28 26
38 36 38 39 37 35 28 29 17 18 17 16 14 14 14 14 14 14 16 19 19 19 21 22 22 25 30 35 32 35 47 46 36 31 24 11 12 11 12 14 20 20 18 17 20 16 25 25 25
39 39 40 42 40 37 35 31 20 20 20 19 17 16 15 13 14 14 15 18 17 18 18 20 20 23 29 34 33 32 41 47 33 30 19 15 12 14 14 18 19 20 15 21 16 20 27 27 20
43 42 39 42 43 43 39 31 21 21 21 21 20 18 17 15 14 14 15 17 15 16 16 18 18 22 27 33 33 31 38 43 31 25 25 19 15 18 22 22 20 17 20 16 19 24 21 22 23
48 44 43 44 47 46 45 33 23 21 21 21 21 20 19 17 16 16 16 16 14 13 13 16 17 20 25 30 32 31 33 35 31 22 26 23 23 21 20 19 21 19 23 24 22 17 17 20 22
50 51 48 47 49 49 46 37 28 22 21 22 23 21 22 18 17 18 16 15 14 11 11 13 14 18 22 25 32 29 28 31 33 30 27 22 20 19 18 19 25 26 23 20 19 18 19 17 18
49 51 53 53 51 50 51 45 33 27 25 24 23 23 24 21 18 18 17 15 15 9 8 10 12 15 18 22 28 27 27 30 27 27 29 23 19 18 22 26 25 21 19 19 18 19 24 27 26
Wind_Direction
305 304 302 300 299 298 303 301 292 289 296 299 298 296 297 299 300 302 300 300 301 302 300 297 292 288 285 283 282 282 283 284 286 288 289 292 296 297 296 295 291 284 281 284 286 289 295 295 290
313 311 311 308 305 305 305 292 287 294 297 296 291 291 294 292 294 298 299 298 298 297 296 296 294 291 287 282 280 279 281 282 283 285 288 294 297 296 295 294 289 286 283 283 285 287 286 291 286
317 314 309 313 312 310 298 293 296 292 291 285 287 292 294 289 295 294 293 294 293 295 296 298 297 292 288 284 283 283 283 284 284 286 291 295 296 294 295 291 288 287 288 286 285 284 283 284 284
310 310 307 313 314 308 301 293 291 293 287 285 289 288 286 288 288 288 288 290 293 296 297 298 296 295 290 287 285 285 286 285 285 287 292 295 296 294 294 292 287 286 286 286 285 286 283 281 279
298 301 304 311 312 307 294 294 293 291 288 281 282 282 282 280 284 288 290 294 296 297 299 299 298 298 294 289 286 286 286 285 284 285 290 293 293 295 293 291 288 289 288 287 287 285 281 277 271
287 295 304 311 309 300 294 294 292 290 288 283 280 278 279 282 287 288 290 292 293 295 296 296 296 297 294 290 287 286 287 286 284 287 288 293 293 294 292 291 292 290 291 289 286 285 281 274 263
277 287 296 305 307 309 301 294 289 285 284 283 282 280 282 287 289 289 289 289 290 291 291 292 294 295 294 292 289 289 290 286 284 286 286 291 294 294 293 292 292 291 291 290 289 281 274 266 259
277 282 288 299 307 311 308 302 294 291 289 285 285 281 284 290 294 294 293 292 290 289 289 291 293 293 292 291 290 290 291 286 284 287 289 291 295 295 297 296 292 296 294 289 283 272 265 260 254
278 279 282 290 304 311 310 302 297 293 289 288 281 278 284 293 299 298 296 295 293 294 293 293 294 294 293 291 290 290 290 287 286 288 291 294 294 296 297 298 297 298 295 285 273 266 260 258 253
278 278 279 283 295 305 310 303 297 289 289 286 280 276 283 290 297 296 297 298 296 295 295 294 295 295 293 292 291 293 292 286 285 289 293 295 293 296 297 297 298 300 290 276 267 261 257 254 255
277 275 280 281 288 297 308 304 295 285 283 285 284 281 283 289 295 297 302 303 300 298 296 296 297 297 296 297 297 295 291 285 284 287 292 293 294 296 299 300 300 299 286 272 264 259 255 250 250
276 276 277 278 284 296 307 305 297 284 280 285 285 288 288 293 295 303 308 306 300 297 296 297 299 299 298 298 297 296 292 289 287 289 294 296 296 298 300 301 301 296 279 268 264 259 255 249 246
276 277 278 279 284 296 306 306 298 284 282 285 290 289 289 289 295 303 304 301 299 298 301 301 300 299 300 302 299 298 293 292 291 294 297 298 296 298 299 301 302 288 272 267 266 262 256 253 249
276 276 276 277 281 292 303 307 297 287 287 290 289 288 285 286 295 298 299 298 300 303 302 300 300 302 304 303 300 300 295 293 295 296 298 298 297 297 299 300 298 278 271 269 266 261 255 251 246
275 274 275 277 281 291 303 308 296 290 290 293 289 286 288 292 297 300 302 300 306 302 305 306 307 306 307 307 305 305 300 296 297 298 298 298 297 297 300 301 285 270 270 268 265 267 262 252 238
275 272 273 273 279 288 298 307 294 293 291 293 288 287 287 290 296 304 301 306 304 307 307 311 311 311 311 310 308 306 304 302 300 299 300 299 298 297 297 293 273 268 268 267 271 268 257 243 229
273 272 271 274 276 286 296 307 291 292 296 288 289 291 293 295 302 304 304 303 307 311 314 315 314 315 313 312 311 311 308 304 303 305 303 299 295 294 291 279 268 268 267 270 270 251 233 223 217
272 274 271 273 272 283 292 306 288 290 290 282 285 289 289 293 302 305 306 308 312 317 317 316 319 316 315 315 316 314 311 312 312 309 309 300 295 287 282 268 262 263 267 269 242 230 219 200 202
266 270 273 271 272 276 287 301 286 289 288 282 277 281 285 293 303 309 308 310 314 317 319 323 321 321 321 322 320 317 317 317 319 315 311 303 293 286 265 255 250 262 268 242 216 196 185 192 194
266 271 272 268 272 275 284 297 292 282 283 281 276 281 283 292 300 303 303 309 316 319 325 327 327 327 326 326 321 322 318 323 322 326 321 306 287 270 269 227 236 252 236 174 171 186 177 177 181
263 270 268 269 268 274 282 292 290 284 283 282 275 276 280 291 297 296 304 312 316 323 326 328 330 331 330 325 326 324 325 327 326 336 329 323 274 287 203 197 208 184 152 142 155 162 166 172 188
259 266 265 269 269 269 280 287 290 287 287 287 280 277 282 288 289 300 308 311 319 328 331 333 335 333 328 326 329 327 333 336 339 346 337 296 280 255 184 190 183 185 130 145 160 170 161 170 197
258 260 264 267 267 268 278 284 289 293 285 285 281 280 285 290 296 304 305 312 327 331 335 336 336 331 329 335 329 326 335 340 350 354 351 329 339 193 179 175 178 182 158 114 168 180 199 183 178
253 253 259 262 265 263 271 276 284 287 290 287 286 285 289 292 299 303 307 313 333 334 334 335 335 332 332 341 328 330 344 348 357 4 13 24 109 159 157 149 178 177 140 130 154 152 191 160 177
248 251 257 259 259 266 267 268 276 278 282 287 290 293 295 298 303 303 313 315 333 333 333 336 335 333 334 342 330 329 345 359 360 17 25 66 106 125 139 141 165 173 173 138 147 143 147 157 165
244 249 253 259 260 262 263 264 269 272 276 280 289 292 304 304 301 308 311 312 331 332 334 337 337 334 338 343 340 344 351 1 8 28 37 62 91 111 122 139 152 163 175 150 126 141 152 152 160
240 247 251 255 259 262 261 260 262 268 269 278 286 293 300 310 300 302 303 313 326 332 335 338 339 334 341 346 348 346 348 1 15 29 42 62 86 106 126 132 147 164 182 134 144 150 149 149 157
239 243 246 248 256 259 262 261 261 265 268 271 280 285 291 306 306 298 301 310 318 331 337 340 340 334 342 350 358 355 359 10 22 43 49 75 92 110 121 143 161 136 121 132 145 149 145 147 160
239 242 244 247 250 257 262 259 257 259 262 267 276 281 287 301 303 300 298 304 311 326 335 339 341 336 341 354 5 5 21 25 32 53 62 74 96 134 144 133 116 119 127 139 153 152 144 145 147
246 246 242 241 247 252 257 257 258 254 258 265 271 277 283 291 297 295 295 297 303 314 325 336 340 337 340 351 8 11 29 38 60 89 92 103 120 121 119 121 120 120 124 132 134 139 139 137 147
Height
5829 5829 5828 5828 5830 5827 5825 5825 5823 5821 5821 5820 5820 5820 5819 5818 5817 5818 5814 5812 5812 5812 5811 5811 5810 5809 5808 5807 5806 5805 5804 5802 5801 5800 5799 5798 5797 5795 5794 5793 5793 5792 5791 5791 5790 5790 5789 5789 5789
5828 5827 5826 5826 5827 5825 5824 5822 5821 5820 5819 5818 5818 5818 5817 5815 5815 5814 5812 5810 5810 5810 5809 5808 5807 5805 5804 5803 5802 5801 5799 5798 5797 5795 5794 5794 5792 5791 5790 5788 5788 5787 5786 5786 5785 5785 5784 5783 5783
5826 5826 5826 5825 5824 5823 5822 5821 5820 5819 5818 5817 5816 5815 5814 5812 5812 5812 5810 5808 5807 5807 5805 5804 5802 5801 5799 5798 5797 5796 5794 5793 5792 5791 5790 5788 5787 5786 5784 5783 5782 5782 5781 5780 5780 5778 5777 5777 5777
5825 5825 5824 5824 5823 5822 5820 5818 5817 5817 5815 5814 5813 5813 5811 5809 5807 5807 5806 5805 5804 5804 5802 5801 5798 5796 5795 5793 5791 5790 5789 5788 5786 5785 5784 5783 5781 5780 5778 5777 5776 5775 5774 5773 5772 5772 5770 5770 5771
5824 5823 5822 5822 5821 5820 5817 5816 5815 5814 5813 5812 5811 5811 5808 5805 5804 5803 5802 5801 5800 5799 5798 5796 5794 5792 5790 5788 5787 5785 5783 5782 5781 5780 5779 5777 5776 5773 5771 5770 5769 5768 5766 5765 5764 5763 5762 5762 5762
5822 5821 5821 5820 5818 5817 5815 5813 5812 5811 5810 5809 5809 5808 5805 5803 5801 5799 5798 5797 5795 5794 5792 5791 5789 5788 5785 5783 5782 5780 5778 5776 5775 5774 5772 5770 5769 5766 5764 5762 5761 5759 5758 5756 5755 5754 5754 5754 5753
5819 5818 5818 5817 5815 5814 5813 5812 5810 5809 5808 5806 5805 5804 5802 5800 5799 5796 5795 5793 5791 5789 5787 5785 5783 5782 5780 5778 5776 5774 5772 5770 5768 5767 5765 5764 5761 5758 5756 5754 5752 5750 5748 5746 5744 5743 5743 5742 5744
5816 5816 5815 5814 5812 5811 5810 5808 5807 5806 5805 5804 5802 5801 5798 5797 5796 5794 5792 5790 5787 5785 5783 5781 5778 5777 5774 5772 5770 5768 5766 5764 5762 5760 5758 5756 5753 5750 5747 5744 5741 5739 5736 5734 5731 5730 5731 5732 5734
5813 5813 5812 5812 5810 5808 5806 5804 5804 5802 5801 5799 5799 5797 5796 5794 5792 5790 5788 5787 5784 5781 5779 5775 5773 5771 5769 5767 5764 5762 5759 5757 5754 5752 5750 5747 5744 5740 5737 5734 5731 5728 5724 5721 5720 5720 5720 5722 5725
5810 5810 5808 5808 5807 5806 5804 5802 5800 5799 5797 5796 5795 5794 5792 5791 5788 5785 5783 5782 5779 5776 5773 5771 5768 5765 5763 5761 5758 5755 5752 5749 5747 5745 5742 5738 5735 5731 5727 5724 5720 5716 5713 5710 5710 5710 5711 5713 5716
5807 5806 5805 5804 5803 5802 5800 5798 5797 5794 5793 5792 5791 5790 5788 5787 5785 5783 5780 5777 5774 5771 5767 5764 5762 5759 5756 5753 5751 5748 5745 5742 5740 5737 5734 5729 5725 5720 5716 5712 5708 5703 5701 5699 5700 5700 5701 5704 5707
5803 5802 5801 5799 5798 5797 5796 5794 5793 5790 5789 5789 5787 5786 5784 5782 5779 5777 5775 5772 5769 5766 5762 5759 5757 5753 5750 5747 5745 5741 5737 5734 5732 5728 5724 5719 5713 5709 5704 5699 5695 5691 5689 5689 5689 5689 5690 5694 5697
5797 5797 5797 5796 5794 5794 5792 5789 5788 5785 5785 5785 5783 5781 5779 5777 5774 5772 5770 5767 5764 5761 5758 5755 5751 5748 5744 5741 5737 5733 5729 5726 5722 5717 5712 5706 5701 5696 5690 5685 5682 5678 5677 5677 5678 5678 5679 5682 5686
5793 5793 5792 5792 5790 5790 5788 5784 5783 5781 5780 5780 5778 5776 5774 5773 5770 5768 5766 5763 5760 5757 5753 5750 5746 5742 5739 5735 5730 5726 5721 5717 5712 5707 5700 5693 5687 5682 5676 5672 5668 5665 5663 5663 5664 5665 5666 5669 5673
5788 5788 5787 5786 5786 5785 5785 5781 5778 5777 5776 5776 5774 5771 5769 5768 5765 5763 5761 5758 5756 5752 5749 5745 5741 5737 5733 5728 5723 5718 5713 5708 5702 5696 5688 5680 5672 5666 5661 5657 5653 5651 5649 5649 5650 5651 5652 5656 5661
5784 5784 5782 5782 5781 5780 5780 5780 5770 5773 5773 5770 5768 5766 5765 5764 5761 5758 5757 5754 5751 5748 5744 5740 5736 5731 5727 5722 5716 5711 5705 5699 5691 5682 5674 5665 5657 5649 5644 5641 5638 5637 5637 5637 5637 5637 5637 5641 5648
5779 5779 5778 5777 5776 5776 5774 5776 5766 5768 5768 5766 5764 5762 5761 5758 5756 5754 5753 5750 5748 5744 5740 5735 5730 5726 5721 5715 5709 5703 5696 5688 5679 5670 5659 5648 5638 5631 5627 5625 5625 5626 5626 5625 5627 5628 5629 5634 5643
5773 5773 5773 5772 5772 5772 5770 5771 5764 5763 5764 5762 5760 5758 5757 5755 5753 5751 5749 5747 5743 5739 5735 5731 5726 5720 5715 5709 5702 5695 5686 5677 5666 5652 5638 5624 5617 5612 5611 5612 5614 5616 5616 5617 5619 5622 5620 5631 5642
5768 5767 5768 5766 5765 5767 5765 5766 5761 5758 5759 5758 5756 5754 5753 5751 5749 5746 5744 5743 5739 5735 5732 5726 5720 5715 5709 5703 5695 5687 5678 5666 5652 5637 5618 5604 5601 5600 5599 5601 5607 5608 5609 5610 5614 5618 5628 5634 5642
5762 5762 5763 5761 5760 5760 5761 5762 5757 5755 5755 5754 5752 5751 5749 5747 5745 5743 5741 5739 5735 5731 5727 5722 5716 5710 5704 5697 5689 5680 5668 5656 5640 5620 5601 5593 5591 5592 5594 5598 5602 5604 5606 5609 5614 5616 5624 5632 5641
5755 5756 5756 5755 5754 5755 5755 5758 5754 5750 5751 5750 5748 5746 5745 5743 5741 5739 5738 5735 5731 5727 5723 5717 5711 5706 5699 5692 5684 5673 5662 5647 5628 5608 5594 5589 5588 5590 5592 5595 5599 5603 5607 5611 5615 5619 5624 5630 5640
5748 5749 5749 5748 5748 5749 5751 5750 5751 5748 5747 5746 5744 5743 5741 5740 5738 5736 5734 5731 5727 5723 5719 5714 5708 5702 5696 5689 5679 5668 5656 5639 5620 5602 5589 5587 5587 5589 5592 5593 5598 5603 5608 5615 5619 5624 5627 5632 5639
5742 5743 5742 5742 5741 5742 5747 5743 5748 5744 5744 5742 5740 5739 5737 5736 5733 5731 5730 5727 5724 5719 5715 5711 5705 5700 5694 5686 5674 5664 5652 5633 5616 5601 5589 5587 5587 5588 5591 5594 5598 5603 5609 5615 5621 5625 5628 5633 5640
5734 5736 5736 5735 5734 5734 5741 5739 5745 5741 5741 5739 5737 5736 5734 5732 5729 5728 5726 5723 5719 5716 5713 5709 5704 5698 5692 5684 5672 5662 5649 5632 5618 5603 5592 5589 5589 5591 5593 5599 5600 5607 5613 5618 5622 5627 5631 5636 5643
5727 5729 5728 5727 5728 5729 5734 5734 5739 5737 5737 5736 5734 5732 5730 5729 5726 5724 5723 5719 5716 5714 5711 5707 5702 5696 5689 5682 5671 5661 5649 5635 5622 5608 5598 5595 5596 5598 5599 5604 5607 5611 5617 5622 5627 5631 5634 5640 5646
5718 5720 5721 5719 5721 5723 5725 5727 5734 5733 5733 5732 5731 5729 5728 5725 5723 5722 5720 5716 5714 5712 5709 5705 5700 5694 5688 5681 5671 5662 5651 5638 5626 5615 5606 5603 5604 5605 5606 5609 5614 5618 5622 5628 5631 5635 5639 5645 5648
5709 5711 5715 5713 5713 5712 5715 5723 5728 5728 5728 5728 5727 5726 5724 5722 5720 5718 5717 5714 5712 5709 5706 5703 5699 5693 5688 5681 5672 5663 5655 5644 5632 5623 5614 5612 5611 5613 5616 5620 5622 5626 5629 5633 5637 5640 5645 5647 5650
5698 5704 5704 5705 5705 5705 5705 5715 5722 5723 5723 5723 5722 5721 5720 5719 5717 5715 5713 5711 5709 5707 5704 5701 5698 5692 5689 5683 5674 5666 5660 5650 5638 5632 5625 5622 5622 5624 5626 5628 5631 5634 5638 5639 5641 5645 5648 5650 5655
5688 5690 5695 5698 5698 5697 5699 5706 5714 5717 5717 5717 5717 5716 5715 5714 5714 5713 5710 5708 5706 5705 5702 5700 5697 5693 5689 5684 5677 5670 5665 5656 5648 5640 5636 5635 5635 5636 5636 5639 5641 5642 5644 5647 5649 5650 5651 5653 5658
5676 5680 5682 5685 5690 5692 5691 5694 5705 5710 5711 5711 5710 5710 5709 5709 5709 5708 5707 5704 5704 5702 5700 5698 5696 5693 5689 5686 5680 5673 5670 5662 5659 5655 5652 5650 5648 5648 5648 5648 5649 5649 5650 5651 5652 5654 5656 5661 5667